QPF
0.00 0.00 0.01 0.03 0.10 0.11 0.10 0.03 0.02 0.02 0.01 0.00 0.00 0.00 0.02 0.04 0.11 0.16 0.16 0.12 0.15 0.17 0.04 0.03 0.06 0.12 0.19 0.23 0.13 0.10 0.22 0.33 0.26 0.15 0.11 0.14 0.15 0.13 0.15 0.16 0.15 0.19 0.20 0.14 0.10 0.09 0.10 0.12 0.16
0.00 0.00 0.03 0.08 0.13 0.12 0.08 0.02 0.01 0.01 0.00 0.00 0.00 0.00 0.01 0.03 0.05 0.08 0.10 0.09 0.13 0.14 0.05 0.04 0.07 0.11 0.21 0.22 0.10 0.08 0.18 0.32 0.24 0.14 0.13 0.22 0.26 0.26 0.27 0.28 0.25 0.20 0.15 0.11 0.11 0.12 0.12 0.13 0.15
0.00 0.01 0.05 0.11 0.11 0.09 0.05 0.02 0.00 0.00 0.00 0.00 0.00 0.00 0.01 0.04 0.06 0.08 0.07 0.06 0.07 0.09 0.07 0.05 0.08 0.11 0.18 0.24 0.20 0.18 0.25 0.23 0.14 0.10 0.11 0.17 0.20 0.19 0.17 0.18 0.17 0.15 0.12 0.10 0.09 0.12 0.13 0.14 0.14
0.00 0.03 0.06 0.11 0.10 0.05 0.02 0.01 0.00 0.00 0.00 0.00 0.00 0.01 0.02 0.03 0.04 0.05 0.02 0.04 0.07 0.08 0.07 0.05 0.06 0.09 0.13 0.18 0.22 0.22 0.20 0.15 0.10 0.07 0.08 0.12 0.16 0.13 0.09 0.08 0.09 0.09 0.09 0.08 0.07 0.09 0.12 0.16 0.16
0.03 0.07 0.14 0.12 0.06 0.02 0.01 0.00 0.00 0.00 0.00 0.00 0.00 0.01 0.02 0.03 0.02 0.02 0.02 0.05 0.07 0.08 0.08 0.05 0.05 0.08 0.10 0.11 0.12 0.12 0.11 0.09 0.07 0.06 0.07 0.11 0.10 0.07 0.06 0.05 0.06 0.07 0.06 0.06 0.06 0.09 0.14 0.16 0.23
0.05 0.13 0.17 0.09 0.03 0.02 0.01 0.00 0.00 0.01 0.01 0.00 0.00 0.01 0.03 0.03 0.02 0.02 0.02 0.04 0.08 0.08 0.07 0.05 0.05 0.06 0.08 0.10 0.09 0.08 0.07 0.06 0.07 0.07 0.06 0.05 0.04 0.04 0.04 0.04 0.05 0.06 0.07 0.08 0.08 0.10 0.15 0.20 0.36
0.07 0.15 0.15 0.05 0.03 0.04 0.01 0.00 0.01 0.01 0.01 0.00 0.00 0.00 0.03 0.04 0.03 0.02 0.02 0.05 0.07 0.08 0.08 0.07 0.05 0.06 0.07 0.07 0.07 0.07 0.07 0.06 0.06 0.06 0.05 0.11 0.06 0.05 0.06 0.06 0.06 0.06 0.07 0.06 0.07 0.10 0.15 0.23 0.30
0.04 0.07 0.06 0.03 0.02 0.04 0.01 0.00 0.00 0.01 0.03 0.01 0.01 0.01 0.03 0.04 0.03 0.03 0.04 0.05 0.06 0.08 0.08 0.06 0.05 0.08 0.10 0.10 0.08 0.07 0.07 0.05 0.06 0.06 0.11 0.19 0.11 0.08 0.07 0.04 0.04 0.03 0.04 0.05 0.07 0.09 0.14 0.16 0.12
0.03 0.08 0.06 0.02 0.01 0.01 0.00 0.00 0.00 0.01 0.01 0.01 0.00 0.01 0.02 0.02 0.02 0.02 0.03 0.04 0.06 0.07 0.07 0.06 0.04 0.06 0.07 0.07 0.08 0.08 0.07 0.05 0.06 0.09 0.16 0.23 0.19 0.12 0.10 0.06 0.05 0.03 0.04 0.06 0.07 0.11 0.26 0.23 0.13
0.04 0.10 0.05 0.01 0.00 0.00 0.00 0.00 0.01 0.01 0.01 0.01 0.01 0.01 0.01 0.01 0.01 0.02 0.03 0.03 0.05 0.06 0.07 0.05 0.04 0.05 0.05 0.04 0.05 0.07 0.07 0.08 0.09 0.13 0.17 0.23 0.25 0.20 0.12 0.08 0.06 0.05 0.06 0.07 0.10 0.24 0.31 0.20 0.16
0.03 0.04 0.02 0.02 0.01 0.00 0.00 0.01 0.01 0.01 0.01 0.02 0.02 0.02 0.01 0.01 0.01 0.02 0.03 0.02 0.04 0.04 0.05 0.05 0.04 0.04 0.03 0.03 0.04 0.06 0.09 0.09 0.11 0.12 0.12 0.17 0.21 0.20 0.14 0.10 0.09 0.09 0.08 0.09 0.14 0.17 0.11 0.11 0.12
0.01 0.01 0.00 0.00 0.00 0.00 0.00 0.01 0.01 0.01 0.01 0.02 0.03 0.02 0.01 0.01 0.02 0.02 0.02 0.02 0.02 0.03 0.03 0.02 0.02 0.03 0.04 0.02 0.04 0.05 0.06 0.06 0.08 0.13 0.12 0.10 0.13 0.12 0.11 0.10 0.09 0.09 0.10 0.10 0.10 0.10 0.08 0.07 0.06
0.00 0.00 0.00 0.00 0.00 0.00 0.00 0.00 0.00 0.01 0.01 0.01 0.01 0.01 0.01 0.01 0.02 0.02 0.01 0.02 0.02 0.05 0.04 0.03 0.02 0.02 0.03 0.04 0.05 0.04 0.05 0.06 0.08 0.12 0.11 0.10 0.09 0.10 0.13 0.14 0.11 0.09 0.09 0.11 0.15 0.13 0.10 0.08 0.07
0.00 0.00 0.00 0.00 0.00 0.00 0.01 0.01 0.00 0.01 0.01 0.01 0.01 0.01 0.01 0.01 0.02 0.02 0.01 0.01 0.02 0.04 0.05 0.04 0.02 0.01 0.02 0.04 0.04 0.04 0.04 0.06 0.07 0.09 0.12 0.10 0.09 0.09 0.12 0.14 0.12 0.12 0.12 0.12 0.13 0.12 0.10 0.08 0.08
0.00 0.00 0.00 0.00 0.00 0.00 0.01 0.02 0.00 0.00 0.00 0.00 0.01 0.01 0.01 0.02 0.03 0.03 0.01 0.01 0.01 0.02 0.03 0.03 0.01 0.01 0.03 0.04 0.03 0.03 0.03 0.03 0.06 0.07 0.08 0.08 0.08 0.09 0.08 0.08 0.08 0.09 0.08 0.08 0.09 0.10 0.08 0.08 0.08
0.01 0.00 0.00 0.00 0.00 0.00 0.01 0.02 0.01 0.00 0.00 0.00 0.01 0.01 0.01 0.01 0.02 0.03 0.02 0.02 0.01 0.02 0.03 0.03 0.01 0.01 0.02 0.03 0.02 0.02 0.02 0.03 0.04 0.07 0.08 0.08 0.09 0.08 0.07 0.04 0.05 0.05 0.05 0.07 0.10 0.09 0.09 0.10 0.09
0.01 0.01 0.01 0.00 0.00 0.00 0.00 0.00 0.00 0.00 0.01 0.00 0.01 0.01 0.02 0.01 0.02 0.03 0.02 0.01 0.01 0.01 0.01 0.02 0.02 0.02 0.03 0.02 0.02 0.02 0.03 0.04 0.03 0.06 0.07 0.07 0.08 0.06 0.04 0.04 0.05 0.05 0.06 0.06 0.05 0.07 0.09 0.10 0.09
0.01 0.02 0.01 0.00 0.00 0.00 0.00 0.00 0.00 0.00 0.00 0.01 0.01 0.01 0.01 0.01 0.01 0.02 0.02 0.01 0.01 0.00 0.01 0.01 0.02 0.02 0.02 0.02 0.03 0.03 0.05 0.04 0.04 0.05 0.06 0.06 0.06 0.05 0.05 0.05 0.05 0.05 0.06 0.06 0.06 0.06 0.06 0.06 0.07
0.01 0.01 0.00 0.00 0.00 0.01 0.00 0.00 0.00 0.01 0.01 0.01 0.01 0.01 0.01 0.02 0.01 0.01 0.01 0.01 0.01 0.01 0.01 0.01 0.02 0.03 0.04 0.05 0.04 0.05 0.06 0.05 0.04 0.05 0.09 0.08 0.05 0.06 0.05 0.05 0.06 0.06 0.05 0.05 0.05 0.06 0.05 0.05 0.04
0.01 0.01 0.00 0.00 0.00 0.00 0.01 0.01 0.00 0.01 0.01 0.01 0.01 0.01 0.01 0.01 0.01 0.01 0.01 0.01 0.01 0.01 0.01 0.01 0.02 0.04 0.07 0.07 0.06 0.06 0.06 0.05 0.05 0.05 0.09 0.08 0.05 0.05 0.04 0.06 0.06 0.05 0.04 0.05 0.07 0.09 0.07 0.05 0.04
0.00 0.01 0.01 0.00 0.00 0.00 0.00 0.01 0.01 0.01 0.01 0.02 0.01 0.01 0.01 0.01 0.01 0.01 0.01 0.01 0.01 0.01 0.01 0.02 0.04 0.05 0.08 0.07 0.07 0.06 0.05 0.06 0.07 0.07 0.08 0.06 0.03 0.03 0.04 0.05 0.03 0.04 0.05 0.07 0.08 0.08 0.07 0.07 0.06
0.00 0.01 0.00 0.00 0.01 0.01 0.01 0.02 0.01 0.01 0.03 0.05 0.04 0.01 0.01 0.01 0.01 0.01 0.01 0.01 0.02 0.02 0.03 0.04 0.05 0.07 0.08 0.08 0.07 0.05 0.08 0.07 0.07 0.06 0.06 0.06 0.05 0.03 0.03 0.04 0.03 0.03 0.04 0.04 0.06 0.08 0.08 0.08 0.07
0.01 0.00 0.00 0.00 0.01 0.01 0.01 0.02 0.01 0.00 0.03 0.05 0.04 0.02 0.01 0.01 0.01 0.01 0.02 0.02 0.02 0.02 0.03 0.04 0.05 0.07 0.07 0.05 0.05 0.06 0.07 0.07 0.07 0.06 0.06 0.08 0.07 0.04 0.03 0.04 0.04 0.05 0.05 0.05 0.06 0.07 0.07 0.07 0.06
0.00 0.00 0.00 0.00 0.01 0.03 0.02 0.02 0.02 0.01 0.01 0.01 0.01 0.01 0.00 0.01 0.01 0.01 0.01 0.02 0.02 0.02 0.02 0.02 0.05 0.05 0.06 0.06 0.06 0.06 0.07 0.07 0.09 0.08 0.07 0.06 0.05 0.05 0.04 0.03 0.04 0.05 0.05 0.06 0.06 0.07 0.08 0.06 0.06
0.00 0.01 0.05 0.05 0.04 0.04 0.01 0.01 0.01 0.00 0.00 0.00 0.00 0.01 0.01 0.00 0.00 0.01 0.03 0.02 0.03 0.03 0.02 0.01 0.02 0.03 0.05 0.06 0.07 0.07 0.07 0.07 0.07 0.05 0.05 0.04 0.03 0.04 0.04 0.02 0.03 0.04 0.05 0.04 0.05 0.06 0.06 0.06 0.06
0.00 0.01 0.05 0.07 0.06 0.05 0.03 0.02 0.01 0.00 0.00 0.00 0.00 0.00 0.00 0.00 0.00 0.01 0.02 0.02 0.02 0.02 0.01 0.01 0.02 0.02 0.04 0.06 0.08 0.08 0.07 0.06 0.06 0.05 0.04 0.03 0.02 0.02 0.03 0.02 0.02 0.03 0.03 0.03 0.05 0.05 0.05 0.06 0.05
0.00 0.01 0.01 0.03 0.02 0.05 0.08 0.05 0.02 0.00 0.01 0.01 0.00 0.00 0.00 0.00 0.00 0.01 0.01 0.00 0.01 0.00 0.00 0.01 0.01 0.02 0.03 0.04 0.05 0.05 0.05 0.05 0.05 0.05 0.04 0.03 0.03 0.03 0.03 0.02 0.03 0.03 0.03 0.04 0.05 0.06 0.04 0.04 0.04
0.00 0.01 0.01 0.02 0.03 0.05 0.08 0.05 0.02 0.02 0.02 0.01 0.01 0.00 0.00 0.00 0.00 0.01 0.00 0.00 0.00 0.00 0.01 0.01 0.01 0.02 0.02 0.03 0.03 0.03 0.03 0.03 0.04 0.04 0.05 0.03 0.03 0.03 0.03 0.03 0.03 0.03 0.05 0.06 0.06 0.05 0.03 0.03 0.04
0.00 0.00 0.01 0.03 0.02 0.03 0.07 0.05 0.01 0.01 0.01 0.01 0.01 0.00 0.00 0.00 0.01 0.01 0.00 0.00 0.00 0.00 0.00 0.00 0.00 0.01 0.02 0.02 0.02 0.03 0.03 0.03 0.03 0.03 0.03 0.03 0.03 0.03 0.03 0.04 0.05 0.05 0.04 0.04 0.05 0.03 0.04 0.03 0.04
0.00 0.00 0.00 0.02 0.03 0.02 0.04 0.06 0.02 0.01 0.00 0.00 0.00 0.00 0.00 0.00 0.01 0.01 0.00 0.00 0.00 0.00 0.00 0.00 0.01 0.01 0.01 0.01 0.02 0.03 0.04 0.03 0.02 0.02 0.02 0.02 0.02 0.03 0.03 0.03 0.03 0.02 0.02 0.03 0.03 0.02 0.03 0.02 0.03
MSLP
1007.67 1008.42 1009.14 1009.65 1009.84 1009.64 1009.06 1008.22 1007.26 1006.37 1005.72 1005.41 1005.47 1005.86 1006.46 1007.12 1007.71 1008.11 1008.29 1008.27 1008.13 1007.96 1007.86 1007.92 1008.14 1008.52 1009.00 1009.51 1009.98 1010.40 1010.74 1011.03 1011.32 1011.63 1011.99 1012.40 1012.85 1013.28 1013.66 1013.96 1014.18 1014.32 1014.41 1014.49 1014.57 1014.66 1014.76 1014.85 1014.90
1007.81 1008.64 1009.33 1009.75 1009.78 1009.40 1008.66 1007.69 1006.68 1005.80 1005.22 1005.02 1005.21 1005.71 1006.38 1007.08 1007.67 1008.05 1008.21 1008.18 1008.05 1007.94 1007.92 1008.07 1008.40 1008.87 1009.42 1009.97 1010.48 1010.90 1011.24 1011.53 1011.81 1012.13 1012.48 1012.88 1013.30 1013.69 1014.02 1014.26 1014.41 1014.50 1014.55 1014.59 1014.65 1014.73 1014.82 1014.90 1014.93
1008.12 1008.97 1009.61 1009.90 1009.77 1009.21 1008.32 1007.26 1006.21 1005.37 1004.87 1004.77 1005.06 1005.63 1006.35 1007.05 1007.60 1007.94 1008.06 1008.01 1007.91 1007.85 1007.93 1008.18 1008.62 1009.18 1009.80 1010.40 1010.93 1011.37 1011.72 1012.01 1012.29 1012.59 1012.93 1013.30 1013.68 1014.01 1014.28 1014.46 1014.55 1014.59 1014.61 1014.64 1014.69 1014.77 1014.87 1014.94 1014.96
1008.52 1009.35 1009.90 1010.06 1009.76 1009.06 1008.07 1006.95 1005.90 1005.12 1004.71 1004.71 1005.07 1005.68 1006.39 1007.05 1007.55 1007.82 1007.89 1007.84 1007.76 1007.76 1007.92 1008.27 1008.80 1009.44 1010.12 1010.77 1011.32 1011.77 1012.13 1012.42 1012.70 1013.00 1013.33 1013.67 1014.00 1014.28 1014.48 1014.60 1014.64 1014.65 1014.64 1014.66 1014.72 1014.81 1014.91 1014.98 1014.99
1008.91 1009.68 1010.12 1010.14 1009.72 1008.92 1007.87 1006.75 1005.76 1005.06 1004.75 1004.83 1005.24 1005.85 1006.53 1007.12 1007.54 1007.74 1007.77 1007.70 1007.65 1007.71 1007.94 1008.36 1008.96 1009.66 1010.37 1011.04 1011.61 1012.07 1012.44 1012.75 1013.05 1013.36 1013.68 1014.00 1014.29 1014.51 1014.66 1014.72 1014.72 1014.69 1014.67 1014.69 1014.76 1014.85 1014.96 1015.02 1015.01
1009.13 1009.81 1010.14 1010.05 1009.54 1008.70 1007.67 1006.63 1005.74 1005.16 1004.95 1005.11 1005.54 1006.14 1006.75 1007.27 1007.60 1007.74 1007.73 1007.66 1007.64 1007.74 1008.03 1008.50 1009.13 1009.84 1010.56 1011.22 1011.79 1012.26 1012.65 1012.98 1013.31 1013.64 1013.97 1014.28 1014.54 1014.73 1014.83 1014.84 1014.80 1014.74 1014.70 1014.71 1014.78 1014.87 1014.97 1015.02 1015.00
1009.06 1009.63 1009.85 1009.68 1009.15 1008.35 1007.42 1006.51 1005.78 1005.35 1005.26 1005.48 1005.93 1006.49 1007.03 1007.46 1007.72 1007.81 1007.79 1007.74 1007.75 1007.90 1008.22 1008.71 1009.33 1010.02 1010.70 1011.33 1011.88 1012.34 1012.74 1013.11 1013.48 1013.85 1014.20 1014.52 1014.76 1014.92 1014.97 1014.94 1014.85 1014.77 1014.71 1014.70 1014.75 1014.84 1014.92 1014.95 1014.90
1008.64 1009.08 1009.21 1009.01 1008.52 1007.83 1007.05 1006.34 1005.81 1005.56 1005.59 1005.87 1006.32 1006.83 1007.30 1007.66 1007.87 1007.94 1007.93 1007.91 1007.97 1008.16 1008.50 1008.99 1009.58 1010.21 1010.82 1011.39 1011.89 1012.34 1012.76 1013.16 1013.57 1013.97 1014.35 1014.68 1014.92 1015.05 1015.07 1014.99 1014.87 1014.74 1014.65 1014.61 1014.64 1014.70 1014.76 1014.77 1014.69
1007.89 1008.21 1008.28 1008.09 1007.68 1007.15 1006.58 1006.11 1005.80 1005.72 1005.87 1006.20 1006.64 1007.11 1007.52 1007.82 1008.00 1008.08 1008.11 1008.15 1008.27 1008.50 1008.86 1009.33 1009.85 1010.41 1010.93 1011.42 1011.87 1012.29 1012.70 1013.13 1013.57 1014.01 1014.42 1014.76 1014.99 1015.09 1015.08 1014.96 1014.80 1014.63 1014.51 1014.44 1014.43 1014.46 1014.49 1014.47 1014.39
1006.92 1007.14 1007.16 1007.01 1006.73 1006.38 1006.05 1005.82 1005.73 1005.82 1006.07 1006.44 1006.87 1007.29 1007.65 1007.91 1008.09 1008.19 1008.28 1008.41 1008.60 1008.88 1009.25 1009.68 1010.15 1010.61 1011.05 1011.45 1011.83 1012.21 1012.61 1013.04 1013.50 1013.96 1014.38 1014.72 1014.94 1015.02 1014.98 1014.83 1014.63 1014.44 1014.28 1014.18 1014.14 1014.14 1014.14 1014.11 1014.01
1005.93 1006.05 1006.05 1005.95 1005.81 1005.65 1005.55 1005.54 1005.64 1005.87 1006.20 1006.58 1006.98 1007.35 1007.67 1007.91 1008.10 1008.25 1008.42 1008.62 1008.89 1009.22 1009.61 1010.02 1010.43 1010.81 1011.15 1011.47 1011.78 1012.12 1012.49 1012.90 1013.36 1013.81 1014.23 1014.55 1014.76 1014.82 1014.76 1014.59 1014.38 1014.17 1013.99 1013.88 1013.82 1013.80 1013.78 1013.73 1013.65
1005.09 1005.13 1005.12 1005.09 1005.06 1005.08 1005.17 1005.34 1005.59 1005.91 1006.28 1006.65 1007.01 1007.33 1007.60 1007.83 1008.04 1008.25 1008.49 1008.77 1009.11 1009.49 1009.89 1010.28 1010.65 1010.96 1011.24 1011.49 1011.74 1012.02 1012.35 1012.74 1013.16 1013.59 1013.97 1014.27 1014.46 1014.51 1014.44 1014.28 1014.08 1013.87 1013.70 1013.59 1013.52 1013.49 1013.47 1013.44 1013.36
1004.55 1004.54 1004.53 1004.55 1004.62 1004.77 1004.99 1005.28 1005.62 1005.98 1006.35 1006.69 1006.99 1007.25 1007.48 1007.70 1007.93 1008.19 1008.49 1008.84 1009.24 1009.65 1010.07 1010.45 1010.78 1011.05 1011.28 1011.49 1011.69 1011.93 1012.21 1012.55 1012.92 1013.30 1013.64 1013.90 1014.07 1014.12 1014.06 1013.93 1013.76 1013.59 1013.46 1013.36 1013.31 1013.30 1013.29 1013.27 1013.23
1004.40 1004.35 1004.34 1004.40 1004.54 1004.76 1005.06 1005.41 1005.77 1006.12 1006.44 1006.73 1006.96 1007.17 1007.37 1007.57 1007.81 1008.11 1008.45 1008.85 1009.27 1009.70 1010.12 1010.49 1010.81 1011.07 1011.28 1011.46 1011.64 1011.84 1012.08 1012.36 1012.66 1012.97 1013.26 1013.48 1013.63 1013.69 1013.67 1013.60 1013.49 1013.38 1013.30 1013.25 1013.23 1013.24 1013.26 1013.27 1013.26
1004.56 1004.50 1004.50 1004.58 1004.76 1005.01 1005.33 1005.68 1006.01 1006.31 1006.57 1006.78 1006.95 1007.11 1007.28 1007.48 1007.73 1008.04 1008.40 1008.81 1009.24 1009.67 1010.08 1010.44 1010.75 1011.01 1011.22 1011.41 1011.58 1011.76 1011.96 1012.18 1012.41 1012.65 1012.87 1013.06 1013.20 1013.28 1013.32 1013.31 1013.29 1013.26 1013.24 1013.25 1013.27 1013.31 1013.36 1013.40 1013.44
1004.92 1004.87 1004.88 1004.98 1005.17 1005.43 1005.73 1006.03 1006.30 1006.52 1006.70 1006.83 1006.95 1007.08 1007.23 1007.43 1007.69 1008.01 1008.38 1008.77 1009.18 1009.59 1009.97 1010.33 1010.64 1010.91 1011.14 1011.34 1011.52 1011.69 1011.86 1012.02 1012.19 1012.36 1012.52 1012.67 1012.81 1012.92 1013.01 1013.09 1013.16 1013.21 1013.26 1013.32 1013.38 1013.45 1013.52 1013.60 1013.68
1005.29 1005.27 1005.31 1005.44 1005.64 1005.88 1006.14 1006.37 1006.55 1006.68 1006.77 1006.84 1006.92 1007.03 1007.19 1007.41 1007.69 1008.02 1008.38 1008.75 1009.13 1009.50 1009.85 1010.18 1010.50 1010.78 1011.05 1011.28 1011.48 1011.65 1011.79 1011.91 1012.02 1012.12 1012.23 1012.35 1012.48 1012.63 1012.78 1012.93 1013.08 1013.21 1013.32 1013.41 1013.50 1013.58 1013.67 1013.78 1013.91
1005.52 1005.54 1005.64 1005.81 1006.03 1006.26 1006.46 1006.62 1006.70 1006.73 1006.74 1006.75 1006.80 1006.91 1007.10 1007.36 1007.68 1008.03 1008.39 1008.75 1009.09 1009.42 1009.74 1010.05 1010.36 1010.67 1010.97 1011.23 1011.46 1011.64 1011.76 1011.84 1011.90 1011.94 1012.01 1012.10 1012.23 1012.41 1012.61 1012.83 1013.04 1013.22 1013.37 1013.48 1013.57 1013.65 1013.75 1013.88 1014.05
1005.50 1005.60 1005.79 1006.03 1006.28 1006.51 1006.67 1006.74 1006.72 1006.65 1006.57 1006.52 1006.55 1006.67 1006.90 1007.22 1007.59 1007.99 1008.37 1008.73 1009.05 1009.35 1009.64 1009.94 1010.25 1010.57 1010.90 1011.20 1011.45 1011.64 1011.76 1011.82 1011.83 1011.83 1011.85 1011.93 1012.06 1012.25 1012.49 1012.76 1013.00 1013.22 1013.38 1013.49 1013.56 1013.63 1013.71 1013.85 1014.05
1005.24 1005.45 1005.75 1006.09 1006.40 1006.64 1006.76 1006.75 1006.63 1006.44 1006.26 1006.14 1006.14 1006.27 1006.55 1006.93 1007.38 1007.84 1008.27 1008.65 1008.98 1009.27 1009.54 1009.83 1010.15 1010.49 1010.84 1011.17 1011.45 1011.65 1011.77 1011.81 1011.80 1011.77 1011.77 1011.82 1011.95 1012.16 1012.43 1012.71 1012.98 1013.20 1013.36 1013.45 1013.49 1013.52 1013.59 1013.72 1013.93
1004.84 1005.18 1005.61 1006.07 1006.47 1006.73 1006.82 1006.73 1006.48 1006.17 1005.86 1005.65 1005.59 1005.71 1006.01 1006.45 1006.97 1007.51 1008.01 1008.44 1008.80 1009.11 1009.40 1009.69 1010.02 1010.38 1010.75 1011.11 1011.41 1011.64 1011.77 1011.81 1011.78 1011.74 1011.72 1011.77 1011.90 1012.12 1012.40 1012.70 1012.98 1013.20 1013.34 1013.40 1013.40 1013.40 1013.43 1013.54 1013.76
1004.43 1004.92 1005.52 1006.11 1006.60 1006.90 1006.95 1006.76 1006.39 1005.91 1005.45 1005.10 1004.95 1005.02 1005.32 1005.79 1006.37 1006.98 1007.56 1008.06 1008.48 1008.84 1009.16 1009.48 1009.83 1010.21 1010.61 1010.99 1011.33 1011.57 1011.72 1011.77 1011.76 1011.72 1011.71 1011.77 1011.91 1012.14 1012.43 1012.74 1013.03 1013.24 1013.37 1013.40 1013.37 1013.33 1013.33 1013.41 1013.62
1004.18 1004.83 1005.59 1006.32 1006.90 1007.22 1007.23 1006.94 1006.42 1005.76 1005.11 1004.60 1004.30 1004.28 1004.53 1004.99 1005.60 1006.27 1006.92 1007.49 1007.98 1008.40 1008.77 1009.14 1009.52 1009.94 1010.37 1010.79 1011.15 1011.44 1011.62 1011.70 1011.72 1011.70 1011.71 1011.79 1011.95 1012.20 1012.51 1012.84 1013.14 1013.37 1013.49 1013.52 1013.47 1013.41 1013.37 1013.43 1013.60
1004.17 1004.98 1005.88 1006.74 1007.39 1007.73 1007.69 1007.29 1006.61 1005.76 1004.91 1004.19 1003.72 1003.56 1003.71 1004.12 1004.72 1005.42 1006.11 1006.76 1007.32 1007.80 1008.24 1008.66 1009.09 1009.55 1010.02 1010.48 1010.89 1011.22 1011.45 1011.58 1011.64 1011.67 1011.71 1011.82 1012.02 1012.30 1012.64 1013.00 1013.32 1013.57 1013.72 1013.77 1013.73 1013.66 1013.61 1013.63 1013.77
1004.42 1005.35 1006.38 1007.32 1008.02 1008.36 1008.27 1007.76 1006.93 1005.89 1004.84 1003.92 1003.26 1002.93 1002.94 1003.27 1003.82 1004.49 1005.21 1005.89 1006.51 1007.05 1007.55 1008.03 1008.52 1009.02 1009.54 1010.05 1010.52 1010.91 1011.20 1011.39 1011.51 1011.60 1011.70 1011.85 1012.09 1012.41 1012.78 1013.18 1013.55 1013.85 1014.05 1014.14 1014.13 1014.08 1014.03 1014.03 1014.12
1004.85 1005.87 1006.96 1007.94 1008.66 1008.97 1008.82 1008.23 1007.27 1006.09 1004.87 1003.77 1002.93 1002.43 1002.30 1002.50 1002.97 1003.59 1004.29 1004.98 1005.62 1006.21 1006.76 1007.29 1007.83 1008.39 1008.96 1009.53 1010.06 1010.52 1010.88 1011.15 1011.34 1011.50 1011.66 1011.86 1012.14 1012.50 1012.92 1013.36 1013.79 1014.15 1014.41 1014.57 1014.63 1014.62 1014.58 1014.58 1014.63
1005.33 1006.37 1007.47 1008.44 1009.12 1009.39 1009.19 1008.53 1007.50 1006.23 1004.91 1003.69 1002.72 1002.09 1001.82 1001.89 1002.25 1002.79 1003.43 1004.09 1004.72 1005.33 1005.90 1006.47 1007.05 1007.67 1008.30 1008.93 1009.53 1010.06 1010.51 1010.86 1011.13 1011.36 1011.58 1011.84 1012.16 1012.55 1013.00 1013.49 1013.97 1014.40 1014.74 1014.98 1015.12 1015.18 1015.19 1015.19 1015.23
1005.72 1006.72 1007.74 1008.64 1009.24 1009.46 1009.22 1008.53 1007.49 1006.21 1004.87 1003.61 1002.59 1001.87 1001.51 1001.47 1001.72 1002.16 1002.70 1003.30 1003.89 1004.48 1005.05 1005.64 1006.25 1006.90 1007.58 1008.27 1008.94 1009.55 1010.08 1010.52 1010.87 1011.17 1011.45 1011.76 1012.12 1012.53 1013.02 1013.54 1014.06 1014.56 1014.98 1015.31 1015.54 1015.68 1015.75 1015.79 1015.83
1005.93 1006.81 1007.69 1008.44 1008.93 1009.06 1008.80 1008.13 1007.15 1005.94 1004.68 1003.49 1002.49 1001.77 1001.37 1001.26 1001.41 1001.74 1002.18 1002.68 1003.20 1003.73 1004.27 1004.84 1005.46 1006.13 1006.85 1007.58 1008.31 1009.00 1009.61 1010.13 1010.57 1010.94 1011.29 1011.63 1012.01 1012.45 1012.95 1013.49 1014.05 1014.58 1015.07 1015.49 1015.81 1016.04 1016.19 1016.29 1016.36
1005.95 1006.64 1007.31 1007.87 1008.21 1008.25 1007.97 1007.36 1006.49 1005.44 1004.33 1003.30 1002.42 1001.78 1001.39 1001.25 1001.33 1001.56 1001.89 1002.27 1002.69 1003.12 1003.60 1004.12 1004.71 1005.38 1006.11 1006.88 1007.66 1008.41 1009.10 1009.71 1010.23 1010.68 1011.08 1011.47 1011.87 1012.32 1012.82 1013.36 1013.93 1014.50 1015.04 1015.52 1015.92 1016.24 1016.49 1016.66 1016.79
Thickness
5837 5838 5837 5827 5807 5799 5798 5814 5824 5823 5825 5835 5837 5830 5815 5806 5796 5784 5811 5824 5823 5817 5813 5808 5807 5806 5805 5805 5805 5804 5801 5799 5797 5796 5795 5794 5793 5792 5791 5789 5788 5786 5785 5783 5782 5781 5779 5778 5776
5846 5846 5835 5820 5802 5793 5800 5821 5823 5827 5835 5842 5838 5831 5818 5809 5814 5811 5818 5824 5824 5818 5813 5809 5806 5806 5805 5806 5805 5803 5801 5798 5797 5796 5794 5792 5791 5790 5789 5788 5787 5785 5784 5782 5781 5780 5779 5777 5776
5848 5848 5828 5816 5808 5800 5805 5826 5831 5838 5845 5841 5833 5829 5817 5809 5815 5816 5822 5827 5824 5819 5813 5808 5807 5806 5805 5804 5804 5802 5800 5797 5796 5794 5793 5792 5791 5790 5788 5787 5786 5784 5783 5781 5780 5779 5778 5776 5775
5849 5840 5829 5818 5811 5820 5827 5835 5842 5840 5842 5844 5835 5819 5817 5824 5822 5824 5829 5830 5824 5819 5814 5808 5806 5805 5803 5802 5801 5800 5798 5796 5795 5793 5792 5791 5790 5789 5788 5787 5786 5784 5783 5781 5780 5779 5777 5776 5774
5851 5833 5817 5814 5819 5833 5844 5850 5850 5838 5836 5838 5831 5813 5809 5825 5831 5831 5831 5829 5824 5819 5814 5808 5806 5804 5802 5801 5800 5799 5797 5795 5794 5792 5791 5790 5789 5788 5788 5787 5786 5785 5783 5781 5780 5779 5776 5775 5773
5841 5833 5813 5810 5820 5836 5849 5856 5851 5841 5837 5837 5830 5814 5810 5826 5828 5829 5831 5829 5826 5820 5814 5808 5806 5804 5802 5801 5799 5798 5796 5795 5793 5791 5790 5789 5789 5788 5788 5787 5786 5785 5783 5781 5780 5778 5776 5774 5773
5838 5826 5818 5822 5822 5829 5848 5858 5850 5841 5835 5836 5837 5817 5813 5823 5829 5831 5831 5828 5825 5822 5816 5811 5808 5805 5802 5801 5799 5798 5797 5795 5794 5792 5791 5790 5790 5789 5788 5787 5786 5785 5783 5781 5779 5778 5776 5775 5774
5863 5840 5826 5826 5825 5830 5854 5858 5855 5846 5838 5849 5845 5820 5811 5822 5832 5832 5830 5827 5824 5821 5818 5814 5811 5808 5805 5802 5800 5798 5797 5796 5794 5792 5791 5790 5790 5789 5788 5787 5786 5784 5783 5781 5779 5778 5776 5775 5774
5870 5836 5822 5830 5833 5839 5857 5851 5854 5859 5847 5845 5845 5837 5832 5835 5834 5829 5824 5821 5820 5819 5818 5816 5813 5811 5808 5805 5802 5799 5798 5796 5794 5792 5791 5791 5791 5790 5788 5787 5786 5784 5783 5781 5779 5778 5777 5775 5775
5859 5830 5832 5852 5856 5853 5857 5854 5853 5850 5839 5835 5835 5838 5840 5836 5831 5825 5820 5816 5815 5815 5817 5817 5815 5812 5811 5809 5804 5802 5800 5797 5795 5794 5792 5792 5792 5791 5789 5786 5785 5784 5783 5781 5779 5777 5776 5775 5775
5859 5844 5851 5859 5866 5864 5859 5857 5860 5845 5832 5834 5831 5833 5836 5834 5830 5826 5823 5820 5818 5818 5818 5817 5816 5814 5812 5809 5807 5804 5802 5799 5797 5795 5793 5792 5791 5789 5787 5785 5784 5783 5782 5781 5779 5778 5777 5777 5776
5863 5863 5866 5867 5872 5868 5862 5860 5855 5847 5842 5850 5847 5844 5839 5833 5830 5827 5824 5823 5821 5819 5818 5818 5817 5814 5812 5810 5808 5806 5804 5801 5798 5795 5793 5791 5790 5788 5786 5785 5784 5783 5782 5781 5780 5779 5778 5778 5776
5864 5867 5874 5876 5876 5872 5867 5858 5854 5850 5856 5856 5852 5846 5841 5838 5834 5833 5830 5826 5823 5819 5818 5818 5817 5813 5811 5810 5809 5808 5805 5803 5800 5796 5794 5792 5790 5787 5786 5784 5783 5783 5782 5781 5779 5778 5777 5777 5777
5871 5873 5874 5876 5874 5873 5863 5858 5854 5851 5859 5854 5849 5844 5844 5840 5837 5833 5829 5826 5823 5820 5819 5819 5817 5814 5812 5810 5808 5808 5807 5804 5801 5798 5794 5792 5790 5788 5786 5783 5783 5782 5781 5780 5778 5778 5777 5776 5776
5879 5865 5862 5871 5873 5874 5864 5844 5851 5859 5860 5851 5848 5846 5844 5843 5840 5834 5832 5829 5826 5823 5821 5819 5818 5815 5812 5810 5809 5809 5808 5805 5802 5799 5796 5793 5791 5788 5786 5784 5782 5781 5780 5779 5778 5778 5777 5776 5775
5866 5850 5837 5861 5874 5874 5855 5826 5851 5865 5858 5850 5849 5846 5843 5842 5842 5840 5837 5833 5830 5825 5821 5820 5820 5816 5812 5810 5809 5809 5808 5805 5803 5800 5797 5794 5791 5789 5787 5785 5783 5781 5780 5779 5777 5776 5775 5774 5774
5846 5832 5836 5853 5876 5874 5857 5838 5857 5867 5858 5850 5850 5848 5844 5841 5842 5841 5840 5836 5832 5827 5823 5819 5818 5815 5813 5811 5809 5808 5806 5804 5803 5800 5797 5794 5791 5789 5788 5786 5784 5783 5781 5779 5778 5776 5775 5773 5773
5832 5836 5841 5848 5871 5872 5858 5850 5860 5869 5862 5855 5853 5850 5846 5842 5841 5843 5842 5839 5834 5829 5825 5820 5817 5815 5813 5811 5808 5806 5805 5804 5802 5799 5796 5794 5792 5789 5787 5786 5784 5783 5780 5778 5777 5775 5775 5773 5773
5855 5849 5842 5852 5876 5869 5859 5854 5857 5867 5862 5857 5854 5851 5847 5846 5848 5847 5844 5841 5835 5829 5824 5820 5816 5814 5812 5808 5806 5802 5800 5801 5800 5799 5795 5793 5791 5789 5787 5785 5784 5782 5779 5777 5776 5775 5773 5772 5773
5858 5848 5848 5859 5875 5868 5859 5855 5861 5866 5863 5859 5857 5854 5852 5849 5847 5845 5843 5840 5835 5829 5824 5821 5817 5815 5812 5809 5807 5805 5803 5801 5800 5798 5796 5793 5791 5789 5788 5785 5783 5782 5780 5777 5776 5774 5771 5771 5772
5855 5850 5850 5853 5863 5866 5855 5846 5852 5858 5863 5860 5861 5861 5856 5852 5847 5843 5841 5838 5835 5830 5826 5823 5818 5815 5813 5811 5809 5806 5802 5799 5796 5794 5793 5792 5791 5789 5788 5786 5784 5782 5780 5777 5776 5774 5770 5767 5769
5846 5866 5864 5859 5847 5839 5845 5822 5841 5851 5852 5853 5854 5859 5858 5854 5852 5847 5842 5838 5835 5832 5829 5823 5819 5815 5813 5811 5807 5802 5796 5792 5793 5793 5792 5791 5791 5789 5788 5786 5784 5781 5780 5777 5775 5774 5771 5767 5763
5856 5871 5865 5860 5848 5837 5842 5828 5836 5852 5841 5847 5853 5859 5861 5859 5855 5849 5844 5840 5837 5834 5829 5823 5818 5814 5812 5809 5806 5801 5797 5795 5794 5793 5791 5789 5789 5788 5787 5785 5782 5780 5777 5776 5774 5771 5769 5767 5763
5869 5865 5860 5856 5843 5813 5829 5825 5824 5844 5849 5853 5858 5862 5864 5861 5857 5852 5848 5842 5838 5834 5829 5823 5816 5812 5811 5808 5805 5801 5796 5794 5791 5789 5787 5786 5787 5786 5785 5783 5780 5778 5776 5774 5772 5770 5768 5765 5762
5861 5840 5815 5807 5806 5808 5837 5829 5833 5858 5868 5867 5864 5863 5864 5862 5857 5850 5844 5839 5835 5831 5828 5823 5815 5810 5809 5807 5803 5800 5797 5794 5790 5788 5786 5784 5783 5781 5780 5780 5777 5775 5773 5772 5770 5767 5765 5763 5760
5851 5842 5810 5793 5795 5810 5827 5823 5843 5870 5875 5875 5872 5868 5864 5860 5857 5851 5845 5839 5835 5831 5827 5822 5815 5810 5807 5805 5802 5799 5797 5794 5791 5788 5786 5783 5781 5779 5778 5777 5774 5772 5771 5770 5768 5765 5763 5761 5759
5842 5842 5851 5828 5819 5808 5816 5829 5846 5867 5865 5866 5865 5862 5858 5858 5856 5851 5846 5841 5835 5831 5827 5822 5816 5810 5807 5804 5800 5797 5795 5792 5790 5787 5785 5782 5779 5778 5776 5774 5772 5770 5769 5767 5765 5761 5760 5758 5756
5859 5851 5842 5825 5802 5791 5801 5814 5825 5842 5848 5855 5856 5855 5855 5856 5853 5849 5845 5840 5836 5832 5827 5823 5817 5811 5807 5803 5800 5797 5793 5791 5788 5785 5781 5779 5777 5775 5772 5771 5769 5767 5765 5764 5761 5758 5757 5755 5752
5842 5841 5836 5830 5825 5800 5786 5806 5850 5848 5853 5852 5853 5853 5852 5851 5849 5846 5843 5840 5835 5830 5826 5820 5815 5810 5805 5802 5798 5794 5791 5789 5786 5782 5779 5776 5774 5771 5768 5767 5765 5763 5761 5760 5757 5755 5753 5750 5748
5850 5843 5838 5817 5812 5816 5802 5810 5862 5857 5859 5856 5851 5851 5850 5850 5848 5845 5841 5837 5832 5827 5823 5817 5812 5807 5803 5800 5796 5791 5788 5785 5782 5779 5777 5774 5771 5768 5766 5764 5761 5759 5757 5755 5753 5750 5748 5745 5743